This is the latest recevied weather packets stored in our database for station/object K9NZF-1. If no packets are shown the sender has not sent any weather packets the latest 10 day(s).
| Time | Temp. | Humidity | Pressure | Rain* | Wind** | Luminosity | Snow |
|---|---|---|---|---|---|---|---|
| 1778011402 | 11.67° C | 92% | 1006.7 hPa | 2.79 mm | - | 58 W/m² | - |
| 1778011339 | 11.67° C | 92% | 1006.7 hPa | 2.79 mm | - | 67 W/m² | - |
| 1778011280 | 11.67° C | 92% | 1006.7 hPa | 2.54 mm | - | 69 W/m² | - |
| 1778011217 | 11.67° C | 92% | 1006.7 hPa | 2.54 mm | - | 69 W/m² | - |
| 1778011155 | 11.67° C | 92% | 1006.7 hPa | 2.54 mm | - | 70 W/m² | - |
| 1778011097 | 11.67° C | 92% | 1006.7 hPa | 2.79 mm | - | 69 W/m² | - |
| 1778011038 | 11.67° C | 92% | 1006.8 hPa | 2.79 mm | - | 65 W/m² | - |
| 1778010973 | 11.67° C | 92% | 1006.8 hPa | 2.54 mm | - | 62 W/m² | - |
| 1778010914 | 11.67° C | 92% | 1006.8 hPa | 2.79 mm | - | 63 W/m² | - |
| 1778010852 | 11.67° C | 92% | 1006.9 hPa | 2.79 mm | - | 54 W/m² | - |
| 1778010791 | 11.67° C | 92% | 1006.9 hPa | 2.79 mm | - | 47 W/m² | - |
| 1778010730 | 11.67° C | 92% | 1006.9 hPa | 3.05 mm | - | 53 W/m² | - |
| 1778010673 | 11.67° C | 92% | 1006.8 hPa | 3.05 mm | - | 63 W/m² | - |
| 1778010613 | 11.67° C | 92% | 1006.9 hPa | 3.3 mm | - | 79 W/m² | - |
| 1778010552 | 11.67° C | 92% | 1006.9 hPa | 3.3 mm | - | 86 W/m² | - |
| 1778010493 | 11.67° C | 92% | 1006.9 hPa | 3.3 mm | - | 84 W/m² | - |
| 1778010433 | 11.67° C | 92% | 1006.9 hPa | 3.3 mm | - | 84 W/m² | - |
| 1778010371 | 11.67° C | 92% | 1006.9 hPa | 3.3 mm | - | 86 W/m² | - |
| 1778010311 | 11.67° C | 92% | 1006.9 hPa | 3.56 mm | - | 86 W/m² | - |
| 1778010250 | 12.22° C | 92% | 1006.9 hPa | 3.56 mm | - | 84 W/m² | - |
| 1778010191 | 12.22° C | 92% | 1007 hPa | 3.56 mm | - | 77 W/m² | - |
| 1778010130 | 12.22° C | 92% | 1007.1 hPa | 3.56 mm | - | 58 W/m² | - |
| 1778010070 | 12.22° C | 92% | 1007.2 hPa | 3.81 mm | - | 54 W/m² | - |
| 1778010009 | 12.22° C | 92% | 1007.2 hPa | 3.81 mm | - | 63 W/m² | - |
| 1778009954 | 12.22° C | 92% | 1007.2 hPa | 4.06 mm | - | 72 W/m² | - |
* Rain latest hour (hover to see other rain measurements)
** Current wind speed in m/s (hover to see current wind gust speed)